This is the latest recevied weather packets stored in our database for station/object HK4RAU-16. If no packets are shown the sender has not sent any weather packets the latest 1 day(s).
| Time | Temp. | Humidity | Pressure | Rain* | Wind** | Luminosity | Snow |
|---|---|---|---|---|---|---|---|
| 1778185257 | 26.11° C | 54% | 1010 hPa | 0 mm | - | - | - |
| 1778183687 | 26.67° C | 53% | 1010 hPa | 0 mm | - | - | - |
| 1778182463 | 27.78° C | 50% | 1010 hPa | 0 mm | - | - | - |
| 1778181541 | 25.56° C | 50% | 1010 hPa | 0 mm | - | - | - |
| 1778180599 | 26.11° C | 50% | 1010 hPa | 0 mm | - | - | - |
| 1778179684 | 26.67° C | 50% | 1010 hPa | 0 mm | - | - | - |
| 1778178146 | 26.11° C | 50% | 1011 hPa | 0 mm | - | - | - |
| 1778177528 | 27.22° C | 50% | 1011 hPa | 0 mm | - | - | - |
| 1778175995 | 27.78° C | 50% | 1011 hPa | 0 mm | - | - | - |
| 1778175382 | 26.11° C | 52% | 1011 hPa | 0 mm | - | - | - |
| 1778174773 | 27.22° C | 52% | 1013 hPa | 0 mm | - | - | - |
| 1778174150 | 27.78° C | 52% | 1013 hPa | 0 mm | - | - | - |
| 1778172936 | 27.22° C | 53% | 1013 hPa | 0 mm | - | - | - |
| 1778171409 | 25.56° C | 58% | 1013 hPa | 0 mm | - | - | - |
| 1778170183 | 25° C | 58% | 1014 hPa | 0 mm | - | - | - |
| 1778169264 | 26.11° C | 58% | 1014 hPa | 0 mm | - | - | - |
| 1778168651 | 22.78° C | 59% | 1014 hPa | 0 mm | - | - | - |
| 1778167435 | 24.44° C | 69% | 1015 hPa | 0 mm | - | - | - |
| 1778166203 | 24.44° C | 69% | 1015 hPa | 0 mm | - | - | - |
| 1778165279 | 26.11° C | 65% | 1015 hPa | 0 mm | - | - | - |
| 1778164666 | 23.33° C | 75% | 1015 hPa | 0 mm | - | - | - |
| 1778162518 | 23.33° C | 78% | 1016 hPa | 0 mm | - | - | - |
| 1778161910 | 23.89° C | 79% | 1016 hPa | 0 mm | - | - | - |
| 1778161604 | 24.44° C | 80% | 1016 hPa | 0 mm | - | - | - |
| 1778160676 | 18.89° C | 10% | - | 0 mm | - | - | - |
* Rain latest hour (hover to see other rain measurements)
** Current wind speed in m/s (hover to see current wind gust speed)